Regional Weather Roundup
Issued by NWS Upton, NY

Current Version | Previous Version | Text Only | Print | Product List | Glossary On
Versions: 1 2 3 4 5 6 7 8 9 10 11 12 13 14 15 16 17 18 19 20 21 22 23 24 25 26 27 28 29 30 31 32 33 34 35 36 37 38 39 40 41 42 43 44 45 46 47 48 49 50
000 ASUS41 KOKX 020918 RWROKX REGIONAL WEATHER ROUNDUP NATIONAL WEATHER SERVICE NEW YORK NY 500 AM EDT THU JUL 02 2015 NOTE: "FAIR" INDICATES FEW OR NO CLOUDS BELOW 12,000 FEET WITH NO SIGNIFICANT WEATHER AND/OR OBSTRUCTIONS TO VISIBILITY. NYZ071-072-176-178-NJZ106-104-021000- NEW YORK CITY METRO AREA CITY SKY/WX TMP DP RH WIND PRES REMARKS CENTRAL PARK CLEAR 70 58 65 CALM 29.90S LAGUARDIA APRT CLEAR 71 59 65 NW6 29.86S KENNEDY INTL CLEAR 71 59 65 N3 29.87S NEWARK/LIBERTY PTCLDY 69 60 73 W3 29.87S BRNX BOT. GARD N/A 66 59 77 NE1 29.88R TETERBORO CLEAR 66 59 78 CALM 29.86S $$ NYZ177-179-078>081-021000- LONG ISLAND NEW YORK CITY SKY/WX TMP DP RH WIND PRES REMARKS FARMINGDALE CLEAR 68 59 73 CALM 29.87R ISLIP CLEAR 64 58 80 CALM 29.85S SHIRLEY CLEAR 61 58 90 CALM 29.87S FOG WESTHAMPTON CLEAR 56 54 93 CALM 29.88S MONTAUK POINT N/A 66 63 90 S3 29.88R $$ NYZ052-065-067-021000- HUDSON VALLEY CITY SKY/WX TMP DP RH WIND PRES REMARKS WHITE PLAINS CLEAR 62 58 86 CALM 29.87R NEWBURGH CLEAR 61 59 94 SW8 29.89R MONTGOMERY CLEAR 58 57 97 SW5 29.88R POUGHKEEPSIE CLEAR 59 57 93 CALM 29.87R ALBANY PTCLDY 62 55 77 SW5 29.88R $$ NJZ001-105-106-008-010-013-015-019>022-104-021000- NEW JERSEY CITY SKY/WX TMP DP RH WIND PRES REMARKS NEWARK/LIBERTY PTCLDY 69 60 73 W3 29.87S TETERBORO CLEAR 66 59 78 CALM 29.86S CALDWELL CLEAR 62 59 90 CALM 29.88S FOG MORRISTOWN CLEAR 61 59 94 CALM 29.88S FOG SOMERVILLE CLEAR 60 57 89 CALM 29.86S FOG SUSSEX FOG 57 56 96 CALM 29.89S VSB 1/4 ANDOVER N/A 58 58 100 CALM 29.90S TRENTON CLEAR 63 59 87 NW3 29.87S MILLVILLE PTCLDY 66 65 96 CALM 29.88F FOG ATLANTIC CITY N/A 67 65 93 CALM 29.88S WRIGHTSTOWN CLEAR 63 63 100 CALM 29.86S TOMS RIVER PTCLDY 63 61 94 CALM 29.88F BELMAR CLEAR 63 55 77 W3 29.88R $$ PAZ047>061-062-071-021000- EASTERN PENNSYLVANIA CITY SKY/WX TMP DP RH WIND PRES REMARKS PHILADELPHIA PTCLDY 70 62 76 CALM 29.88S ALLENTOWN PTCLDY 59 57 93 CALM 29.89S FOG SCRANTON PTCLDY 59 55 87 E5 29.91S $$ CTZ002-004>006-009-010-012-RIZ004-006-007-MAZ004-011-015-021000- SOUTHERN NEW ENGLAND IN CT CITY SKY/WX TMP DP RH WIND PRES REMARKS BRADLEY INTL PTCLDY 62 58 86 CALM 29.85R HARTFORD CLEAR 62 60 93 MISG 29.85S DANBURY CLEAR 58 54 86 SW5 29.89R WTRBRY/OXFORD CLEAR 59 52 77 N5 29.89R BRIDGEPORT CLEAR 66 60 81 W3 29.86S MERIDEN CLEAR 60 57 89 CALM 29.86R NEW HAVEN FAIR 63 59 87 CALM 29.86R CHESTER FAIR 61 59 94 CALM 29.88R GROTON CLEAR 61 59 93 CALM 29.85S WILLIMANTIC CLEAR 60 57 89 CALM 29.86R IN RI CITY SKY/WX TMP DP RH WIND PRES REMARKS PROVIDENCE CLEAR 64 57 78 CALM 29.85R BLOCK ISLAND CLEAR 63 59 88 S8 29.86S WESTERLY CLEAR 61 59 93 CALM 29.86S IN MA CITY SKY/WX TMP DP RH WIND PRES REMARKS BOSTON PTCLDY 65 58 78 W10 29.83R WORCESTER CLEAR 61 55 81 W12 29.85F WESTFIELD CLEAR 65 56 72 NW5 29.85S PROVINCETOWN CLEAR 61 7 11 W12 29.84S NANTUCKET FOG 62 59 90 SW5 29.87R VSB 1 $$ ANZ330-335-338-340-345-350-353-355-021000- COASTAL MARINE OBSERVATIONS STATION/POSITION TIME SKY/WX TEMP WIND PRES VSBY WAVE AIR SEA DIR/SP/G HT/PER (UTC) (F) (DEG/KT/KT) (MB) (MI) (FT/S) NY HARB ENTRANCE 0850 71 70 290/ 4/ 6 1011.1 4/ 8 4S FIRE IS 0803 69 N/A 4/ 8 20S FIRE ISLAND 0850 68 66 CALM / 2 1011.1 4/ 8 GREAT SOUTH BAY 0800 71 74 330/ 2/ 4 N/A 23SW MTP 0850 67 66 250/ 4/ 4 1011.0 6/ 8 HUDSON CANYON NOT AVBL KINGS POINT 0800 70 67 20/ 2/ 2 1010.6 CENTRAL LI SOUND NOT AVBL EASTERN LI SOUND 0800 65 64 270/ 4/ 4 N/A ROBBINS REEF 0800 71 300/ 5/ 5 1010.3 $$ >>>>>>>>>>>>>>>>>>>>>>>>>>>> KEY <<<<<<<<<<<<<<<<<<<<<<<<<<< > < > SKY/WX - SKY CONDITION/PRESENT WEATHER < > TMP - TEMPERATURE IN FAHRENHEIT < > DP - DEWPOINT IN FAHRENHEIT < > RH - RELATIVE HUMIDITY IN PERCENT < > WIND - DIRECTION AND SPEED IN MPH < > PRES - MEAN SEA LEVEL PRESSURE IN INCHES OF HG < > WCI - WIND CHILL INDEX < > VSB - VISIBILITY IN MILES < > HX - HEAT INDEX < > TC - TEMPERATURE IN CELSIUS < > VRB - VARIABLE WIND DIRECTION < > < >>>>>>>>>>>>>>>>>>>>>>>>>>>> KEY <<<<<<<<<<<<<<<<<<<<<<<<<<<

USA.gov is the U.S. government's official web portal to all federal, state and local government web resources and services.